Time,TemperatureF,DewpointF,PressureIn,WindDirection,WindDirectionDegrees,WindSpeedMPH,WindSpeedGustMPH,Humidity,HourlyPrecipIn,Conditions,Clouds,dailyrainin,SoftwareType,DateUTC
2013-02-28 00:00:00,30.7,27.9,29.65,WNW,292,2.7,5.8,89,0.00,,,0.00,WUHU21623XXSP,2013-02-28 05:00:00,
2013-02-28 00:05:00,30.7,27.9,29.65,WNW,292,2.7,2.7,89,0.00,,,0.00,WUHU21623XXSP,2013-02-28 05:05:00,
2013-02-28 00:10:00,30.7,27.9,29.65,WNW,292,2.7,2.7,89,0.00,,,0.00,WUHU21623XXSP,2013-02-28 05:10:00,
2013-02-28 00:15:00,30.7,27.9,29.66,WNW,292,5.6,5.6,89,0.00,,,0.00,WUHU21623XXSP,2013-02-28 05:15:00,
2013-02-28 00:20:00,30.7,27.9,29.65,WNW,292,5.6,5.6,89,0.00,,,0.00,WUHU21623XXSP,2013-02-28 05:20:00,
2013-02-28 00:25:00,30.7,27.9,29.65,WNW,292,2.0,5.6,89,0.00,,,0.00,WUHU21623XXSP,2013-02-28 05:25:00,
2013-02-28 00:30:00,30.7,27.9,29.65,WNW,292,4.8,5.6,89,0.00,,,0.00,WUHU21623XXSP,2013-02-28 05:30:00,
2013-02-28 00:35:00,30.7,27.9,29.64,WNW,292,6.0,6.0,89,0.00,,,0.00,WUHU21623XXSP,2013-02-28 05:35:00,
2013-02-28 00:40:00,30.7,27.9,29.64,WNW,292,1.3,6.0,89,0.00,,,0.00,WUHU21623XXSP,2013-02-28 05:40:00,
2013-02-28 00:45:00,30.9,28.1,29.65,WNW,292,4.5,6.0,89,0.00,,,0.00,WUHU21623XXSP,2013-02-28 05:45:00,
2013-02-28 00:50:00,30.9,28.1,29.65,WNW,292,4.0,4.5,89,0.00,,,0.00,WUHU21623XXSP,2013-02-28 05:50:00,
2013-02-28 00:55:00,30.9,28.1,29.65,WNW,292,4.0,4.5,89,0.00,,,0.00,WUHU21623XXSP,2013-02-28 05:55:00,
2013-02-28 01:00:00,30.9,28.1,29.65,WNW,292,4.0,4.0,89,0.00,,,0.00,WUHU21623XXSP,2013-02-28 06:00:00,
2013-02-28 01:05:00,30.9,28.1,29.65,WNW,292,4.0,4.0,89,0.00,,,0.00,WUHU21623XXSP,2013-02-28 06:05:00,
2013-02-28 01:10:00,30.9,28.1,29.65,WNW,292,4.0,4.0,89,0.00,,,0.00,WUHU21623XXSP,2013-02-28 06:10:00,
2013-02-28 01:15:00,30.9,28.1,29.65,WNW,292,2.9,4.5,89,0.00,,,0.00,WUHU21623XXSP,2013-02-28 06:15:00,
2013-02-28 01:20:00,30.9,28.1,29.65,WNW,292,2.7,4.5,89,0.00,,,0.00,WUHU21623XXSP,2013-02-28 06:20:00,
2013-02-28 01:25:00,30.9,28.1,29.65,WNW,292,2.7,2.9,89,0.00,,,0.00,WUHU21623XXSP,2013-02-28 06:25:00,
2013-02-28 01:30:00,31.1,28.3,29.65,WNW,292,2.7,2.7,89,0.00,,,0.00,WUHU21623XXSP,2013-02-28 06:30:00,
2013-02-28 01:35:00,31.1,28.3,29.65,WNW,292,0.0,2.7,89,0.00,,,0.00,WUHU21623XXSP,2013-02-28 06:35:00,
2013-02-28 01:40:00,31.1,28.3,29.66,WNW,292,0.0,0.0,89,0.00,,,0.00,WUHU21623XXSP,2013-02-28 06:40:00,
2013-02-28 01:45:00,31.1,28.3,29.66,WNW,292,2.7,2.7,89,0.00,,,0.00,WUHU21623XXSP,2013-02-28 06:45:00,
2013-02-28 01:50:00,31.1,28.3,29.66,WNW,292,2.7,2.7,89,0.00,,,0.00,WUHU21623XXSP,2013-02-28 06:50:00,
2013-02-28 01:55:00,31.1,28.6,29.66,WNW,292,2.7,2.7,90,0.00,,,0.00,WUHU21623XXSP,2013-02-28 06:55:00,
2013-02-28 02:00:00,31.3,28.8,29.66,WNW,292,0.9,2.7,90,0.00,,,0.00,WUHU21623XXSP,2013-02-28 07:00:00,
2013-02-28 02:05:00,31.3,28.8,29.66,WNW,292,0.9,2.7,90,0.00,,,0.00,WUHU21623XXSP,2013-02-28 07:05:00,
2013-02-28 02:10:00,31.3,28.8,29.66,WNW,292,0.9,0.9,90,0.00,,,0.00,WUHU21623XXSP,2013-02-28 07:10:00,
2013-02-28 02:15:00,31.3,28.8,29.66,WNW,292,3.4,3.4,90,0.00,,,0.00,WUHU21623XXSP,2013-02-28 07:15:00,
2013-02-28 02:20:00,31.3,28.8,29.65,WNW,292,6.9,6.9,90,0.00,,,0.00,WUHU21623XXSP,2013-02-28 07:20:00,
2013-02-28 02:25:00,31.3,28.8,29.65,WNW,292,6.9,6.9,90,0.00,,,0.00,WUHU21623XXSP,2013-02-28 07:25:00,
2013-02-28 02:30:00,31.3,28.8,29.66,WNW,292,0.0,6.9,90,0.00,,,0.00,WUHU21623XXSP,2013-02-28 07:30:00,
2013-02-28 02:35:00,31.3,28.8,29.65,WNW,292,2.0,6.9,90,0.00,,,0.00,WUHU21623XXSP,2013-02-28 07:35:00,
2013-02-28 02:40:00,31.3,28.8,29.66,WNW,292,2.9,2.9,90,0.00,,,0.00,WUHU21623XXSP,2013-02-28 07:40:00,
2013-02-28 02:45:00,31.3,28.8,29.66,WNW,292,2.9,2.9,90,0.00,,,0.00,WUHU21623XXSP,2013-02-28 07:45:00,
2013-02-28 02:50:00,31.3,28.8,29.66,WNW,292,0.0,2.9,90,0.00,,,0.00,WUHU21623XXSP,2013-02-28 07:50:00,
2013-02-28 02:55:00,31.3,28.8,29.66,WNW,292,0.0,1.8,90,0.00,,,0.00,WUHU21623XXSP,2013-02-28 07:55:00,
2013-02-28 03:00:00,31.3,28.8,29.66,WNW,292,2.2,2.2,90,0.00,,,0.00,WUHU21623XXSP,2013-02-28 08:00:00,
2013-02-28 03:05:00,31.3,28.8,29.66,WNW,292,2.2,2.2,90,0.00,,,0.00,WUHU21623XXSP,2013-02-28 08:05:00,
2013-02-28 03:10:00,31.3,28.8,29.66,WNW,292,2.2,2.2,90,0.00,,,0.00,WUHU21623XXSP,2013-02-28 08:10:00,
2013-02-28 03:15:00,31.5,28.9,29.66,NW,315,6.0,6.0,90,0.00,,,0.00,WUHU21623XXSP,2013-02-28 08:15:00,
2013-02-28 03:20:00,31.6,29.1,29.66,NW,315,3.1,6.0,90,0.00,,,0.00,WUHU21623XXSP,2013-02-28 08:20:00,
2013-02-28 03:25:00,31.6,29.1,29.66,WNW,292,4.9,6.0,90,0.00,,,0.00,WUHU21623XXSP,2013-02-28 08:25:00,
2013-02-28 03:30:00,31.6,29.1,29.66,NW,315,3.6,4.9,90,0.00,,,0.00,WUHU21623XXSP,2013-02-28 08:30:00,
2013-02-28 03:35:00,31.6,29.1,29.66,NW,315,1.4,4.9,90,0.00,,,0.00,WUHU21623XXSP,2013-02-28 08:35:00,
2013-02-28 03:40:00,31.6,29.1,29.66,NW,315,1.1,3.6,90,0.00,,,0.00,WUHU21623XXSP,2013-02-28 08:40:00,
2013-02-28 03:45:00,31.6,29.1,29.66,NW,315,1.1,1.1,90,0.00,,,0.00,WUHU21623XXSP,2013-02-28 08:45:00,
2013-02-28 03:50:00,31.6,29.1,29.66,NW,315,2.5,2.5,90,0.00,,,0.00,WUHU21623XXSP,2013-02-28 08:50:00,
2013-02-28 03:55:00,31.6,29.1,29.66,NW,315,0.0,2.5,90,0.00,,,0.00,WUHU21623XXSP,2013-02-28 08:55:00,
2013-02-28 04:00:00,31.6,29.1,29.66,WNW,292,4.5,4.5,90,0.00,,,0.00,WUHU21623XXSP,2013-02-28 09:00:00,
2013-02-28 04:05:00,31.6,29.1,29.66,WNW,302,2.5,4.5,90,0.00,,,0.00,WUHU21623XXSP,2013-02-28 09:05:00,
2013-02-28 04:10:00,31.6,29.1,29.67,WNW,292,0.0,5.6,90,0.00,,,0.00,WUHU21623XXSP,2013-02-28 09:10:00,
2013-02-28 04:15:00,31.6,29.1,29.67,WNW,292,3.7,5.6,90,0.00,,,0.00,WUHU21623XXSP,2013-02-28 09:15:00,
2013-02-28 04:20:00,31.6,29.1,29.67,WNW,292,1.8,4.9,90,0.00,,,0.00,WUHU21623XXSP,2013-02-28 09:20:00,
2013-02-28 04:25:00,31.6,29.1,29.67,WNW,292,0.0,1.8,90,0.00,,,0.00,WUHU21623XXSP,2013-02-28 09:25:00,
2013-02-28 04:30:00,31.6,29.1,29.67,WNW,292,0.0,0.0,90,0.00,,,0.00,WUHU21623XXSP,2013-02-28 09:30:00,
2013-02-28 04:35:00,31.6,29.1,29.67,WNW,292,2.5,2.5,90,0.00,,,0.00,WUHU21623XXSP,2013-02-28 09:35:00,
2013-02-28 04:40:00,31.6,29.1,29.68,WNW,292,0.0,2.5,90,0.00,,,0.00,WUHU21623XXSP,2013-02-28 09:40:00,
2013-02-28 04:45:00,31.6,29.1,29.68,WNW,292,0.9,2.0,90,0.00,,,0.00,WUHU21623XXSP,2013-02-28 09:45:00,
2013-02-28 04:50:00,31.6,29.1,29.68,WNW,292,2.0,3.1,90,0.00,,,0.00,WUHU21623XXSP,2013-02-28 09:50:00,
2013-02-28 04:55:00,31.6,29.1,29.68,WNW,292,0.0,3.1,90,0.00,,,0.00,WUHU21623XXSP,2013-02-28 09:55:00,
2013-02-28 05:00:00,31.6,29.1,29.69,NW,315,0.0,1.6,90,0.00,,,0.00,WUHU21623XXSP,2013-02-28 10:00:00,
2013-02-28 05:05:00,31.6,29.1,29.69,NW,315,0.9,0.9,90,0.00,,,0.00,WUHU21623XXSP,2013-02-28 10:05:00,
2013-02-28 05:10:00,31.6,29.1,29.69,WNW,292,4.0,4.0,90,0.00,,,0.00,WUHU21623XXSP,2013-02-28 10:10:00,
2013-02-28 05:15:00,31.6,29.1,29.69,WNW,292,0.7,4.0,90,0.00,,,0.00,WUHU21623XXSP,2013-02-28 10:15:00,
2013-02-28 05:20:00,31.6,29.1,29.69,WNW,292,0.0,4.0,90,0.00,,,0.00,WUHU21623XXSP,2013-02-28 10:20:00,
2013-02-28 05:25:00,31.6,29.1,29.69,WNW,292,4.0,4.0,90,0.00,,,0.00,WUHU21623XXSP,2013-02-28 10:25:00,
2013-02-28 05:30:00,31.6,29.1,29.69,WNW,292,0.0,4.0,90,0.00,,,0.00,WUHU21623XXSP,2013-02-28 10:30:00,
2013-02-28 05:35:00,31.8,29.3,29.69,WNW,292,0.0,4.0,90,0.00,,,0.00,WUHU21623XXSP,2013-02-28 10:35:00,
2013-02-28 05:40:00,31.8,29.3,29.70,WNW,292,0.0,0.0,90,0.00,,,0.00,WUHU21623XXSP,2013-02-28 10:40:00,
2013-02-28 05:45:00,31.8,29.3,29.70,West,270,0.0,0.0,90,0.00,,,0.00,WUHU21623XXSP,2013-02-28 10:45:00,
2013-02-28 05:50:00,31.8,29.3,29.70,WNW,292,1.6,1.6,90,0.00,,,0.00,WUHU21623XXSP,2013-02-28 10:50:00,
2013-02-28 05:55:00,31.8,29.3,29.70,WNW,292,1.6,1.6,90,0.00,,,0.00,WUHU21623XXSP,2013-02-28 10:55:00,
2013-02-28 06:00:00,31.8,29.2,29.70,WNW,292,1.6,1.6,90,0.00,,,0.00,WUHU21623XXSP,2013-02-28 11:00:00,
2013-02-28 06:05:00,31.8,29.3,29.71,NW,315,0.0,1.6,90,0.00,,,0.00,WUHU21623XXSP,2013-02-28 11:05:00,
2013-02-28 06:10:00,31.8,29.3,29.71,WNW,292,1.8,1.8,90,0.00,,,0.00,WUHU21623XXSP,2013-02-28 11:10:00,
2013-02-28 06:15:00,31.8,29.3,29.71,West,270,1.8,1.8,90,0.00,,,0.00,WUHU21623XXSP,2013-02-28 11:15:00,
2013-02-28 06:20:00,31.8,29.3,29.71,WNW,292,0.0,1.8,90,0.00,,,0.00,WUHU21623XXSP,2013-02-28 11:20:00,
2013-02-28 06:25:00,31.8,29.3,29.71,NW,315,1.3,1.3,90,0.00,,,0.00,WUHU21623XXSP,2013-02-28 11:25:00,
2013-02-28 06:30:00,31.8,29.3,29.71,NW,315,1.3,1.3,90,0.00,,,0.00,WUHU21623XXSP,2013-02-28 11:30:00,
2013-02-28 06:35:00,31.8,29.3,29.71,NW,315,1.3,1.3,90,0.00,,,0.00,WUHU21623XXSP,2013-02-28 11:35:00,
2013-02-28 06:40:00,31.8,29.3,29.71,West,270,0.0,1.3,90,0.00,,,0.00,WUHU21623XXSP,2013-02-28 11:40:00,
2013-02-28 06:45:00,31.8,29.3,29.71,West,279,1.8,2.0,90,0.00,,,0.00,WUHU21623XXSP,2013-02-28 11:45:00,
2013-02-28 06:50:00,31.8,29.3,29.72,WNW,292,1.6,2.0,90,0.00,,,0.00,WUHU21623XXSP,2013-02-28 11:50:00,
2013-02-28 06:55:00,31.8,29.3,29.72,NW,315,0.0,1.6,90,0.00,,,0.00,WUHU21623XXSP,2013-02-28 11:55:00,
2013-02-28 07:00:00,31.8,29.3,29.72,NW,315,0.0,1.6,90,0.00,,,0.00,WUHU21623XXSP,2013-02-28 12:00:00,
2013-02-28 07:05:00,31.8,29.3,29.72,WNW,292,0.0,0.0,90,0.00,,,0.00,WUHU21623XXSP,2013-02-28 12:05:00,
2013-02-28 07:10:00,31.8,29.3,29.73,NW,315,0.0,0.0,90,0.00,,,0.00,WUHU21623XXSP,2013-02-28 12:10:00,
2013-02-28 07:15:00,31.8,29.3,29.74,WNW,292,0.0,0.0,90,0.00,,,0.00,WUHU21623XXSP,2013-02-28 12:15:00,
2013-02-28 07:20:00,31.8,29.3,29.74,WNW,292,0.0,0.0,90,0.00,,,0.00,WUHU21623XXSP,2013-02-28 12:20:00,
2013-02-28 07:25:00,31.8,29.3,29.73,West,270,0.0,0.0,90,0.00,,,0.00,WUHU21623XXSP,2013-02-28 12:25:00,
2013-02-28 07:30:00,31.8,29.3,29.73,West,270,0.0,0.0,90,0.00,,,0.00,WUHU21623XXSP,2013-02-28 12:30:00,
2013-02-28 07:35:00,31.8,29.3,29.74,West,270,0.0,0.0,90,0.00,,,0.00,WUHU21623XXSP,2013-02-28 12:35:00,
2013-02-28 07:40:00,31.8,29.3,29.74,West,270,0.0,0.0,90,0.00,,,0.00,WUHU21623XXSP,2013-02-28 12:40:00,
2013-02-28 07:45:00,31.8,29.3,29.74,WNW,292,0.0,0.0,90,0.00,,,0.00,WUHU21623XXSP,2013-02-28 12:45:00,
2013-02-28 07:50:00,31.8,29.3,29.74,WNW,292,2.2,2.2,90,0.00,,,0.00,WUHU21623XXSP,2013-02-28 12:50:00,
2013-02-28 07:55:00,31.8,29.3,29.74,WNW,292,3.4,3.4,90,0.00,,,0.00,WUHU21623XXSP,2013-02-28 12:55:00,
2013-02-28 08:00:00,31.8,29.3,29.75,WNW,292,3.4,3.4,90,0.00,,,0.00,WUHU21623XXSP,2013-02-28 13:00:00,
2013-02-28 08:05:00,31.8,29.3,29.75,WNW,292,0.0,3.4,90,0.00,,,0.00,WUHU21623XXSP,2013-02-28 13:05:00,
2013-02-28 08:10:00,31.8,29.3,29.75,West,270,0.0,3.4,90,0.00,,,0.00,WUHU21623XXSP,2013-02-28 13:10:00,
2013-02-28 08:15:00,31.8,29.3,29.76,NNW,337,0.0,0.0,90,0.00,,,0.00,WUHU21623XXSP,2013-02-28 13:15:00,
2013-02-28 08:20:00,31.8,29.3,29.76,West,270,0.0,0.0,90,0.00,,,0.00,WUHU21623XXSP,2013-02-28 13:20:00,
2013-02-28 08:25:00,31.8,29.3,29.75,North,0,0.0,0.0,90,0.00,,,0.00,WUHU21623XXSP,2013-02-28 13:25:00,
2013-02-28 08:30:00,31.8,29.3,29.76,NW,315,0.0,0.0,90,0.00,,,0.00,WUHU21623XXSP,2013-02-28 13:30:00,
2013-02-28 08:35:00,32.0,29.5,29.76,WNW,292,0.0,0.0,90,0.00,,,0.00,WUHU21623XXSP,2013-02-28 13:35:00,
2013-02-28 08:40:00,32.2,29.6,29.77,NW,315,0.0,0.0,90,0.00,,,0.00,WUHU21623XXSP,2013-02-28 13:40:00,
2013-02-28 08:45:00,32.2,29.6,29.77,NW,315,0.0,0.0,90,0.00,,,0.00,WUHU21623XXSP,2013-02-28 13:45:00,
2013-02-28 08:50:00,32.2,29.6,29.77,NW,315,0.0,0.0,90,0.00,,,0.00,WUHU21623XXSP,2013-02-28 13:50:00,
2013-02-28 08:55:00,32.2,29.6,29.77,NW,315,0.0,0.0,90,0.00,,,0.00,WUHU21623XXSP,2013-02-28 13:55:00,
2013-02-28 09:00:00,32.2,29.6,29.77,NW,315,0.0,0.0,90,0.00,,,0.00,WUHU21623XXSP,2013-02-28 14:00:00,
2013-02-28 09:05:00,32.2,29.6,29.78,NW,315,0.0,0.0,90,0.00,,,0.00,WUHU21623XXSP,2013-02-28 14:05:00,
2013-02-28 09:10:00,32.2,29.6,29.78,NNE,22,0.0,0.0,90,0.00,,,0.00,WUHU21623XXSP,2013-02-28 14:10:00,
2013-02-28 09:15:00,32.2,29.9,29.78,NNE,22,0.0,0.0,91,0.00,,,0.00,WUHU21623XXSP,2013-02-28 14:15:00,
2013-02-28 09:20:00,32.2,29.9,29.78,North,0,0.0,0.0,91,0.00,,,0.00,WUHU21623XXSP,2013-02-28 14:20:00,
2013-02-28 09:25:00,32.5,30.2,29.78,NW,315,1.8,1.8,91,0.00,,,0.00,WUHU21623XXSP,2013-02-28 14:25:00,
2013-02-28 09:30:00,32.5,30.2,29.78,NW,315,1.8,1.8,91,0.00,,,0.00,WUHU21623XXSP,2013-02-28 14:30:00,
2013-02-28 09:35:00,32.5,30.2,29.78,NW,315,0.0,1.8,91,0.00,,,0.00,WUHU21623XXSP,2013-02-28 14:35:00,
2013-02-28 09:40:00,32.7,30.4,29.78,WNW,292,0.0,0.0,91,0.00,,,0.00,WUHU21623XXSP,2013-02-28 14:40:00,
2013-02-28 09:45:00,32.7,30.4,29.79,NW,315,0.0,0.0,91,0.00,,,0.00,WUHU21623XXSP,2013-02-28 14:45:00,
2013-02-28 09:50:00,32.7,30.4,29.79,NW,315,0.0,0.0,91,0.00,,,0.00,WUHU21623XXSP,2013-02-28 14:50:00,
2013-02-28 09:55:00,32.7,30.4,29.79,NW,315,0.0,0.0,91,0.00,,,0.00,WUHU21623XXSP,2013-02-28 14:55:00,
2013-02-28 10:00:00,32.9,30.5,29.79,NW,315,0.0,0.0,91,0.00,,,0.00,WUHU21623XXSP,2013-02-28 15:00:00,
2013-02-28 10:05:00,32.9,30.5,29.79,NW,315,0.0,0.0,91,0.00,,,0.00,WUHU21623XXSP,2013-02-28 15:05:00,
2013-02-28 10:10:00,32.9,30.5,29.79,NW,315,0.0,0.0,91,0.00,,,0.00,WUHU21623XXSP,2013-02-28 15:10:00,
2013-02-28 10:15:00,32.9,30.5,29.80,NW,315,0.0,0.0,91,0.00,,,0.00,WUHU21623XXSP,2013-02-28 15:15:00,
2013-02-28 10:20:00,32.9,30.5,29.80,NW,315,0.0,0.0,91,0.00,,,0.00,WUHU21623XXSP,2013-02-28 15:20:00,
2013-02-28 10:25:00,32.9,30.5,29.80,NW,315,0.0,0.0,91,0.00,,,0.00,WUHU21623XXSP,2013-02-28 15:25:00,
2013-02-28 10:30:00,32.9,30.5,29.80,North,0,0.0,0.0,91,0.00,,,0.00,WUHU21623XXSP,2013-02-28 15:30:00,
2013-02-28 11:18:00,32.5,30.1,29.82,WNW,292,0.0,0.0,91,0.00,,,0.00,WUHU21623XXSP,2013-02-28 16:18:00,
2013-02-28 11:23:00,32.2,29.8,29.82,WNW,292,0.0,0.0,91,0.00,,,0.00,WUHU21623XXSP,2013-02-28 16:23:00,
2013-02-28 11:28:00,31.9,29.5,29.82,WNW,292,0.0,0.0,91,0.00,,,0.00,WUHU21623XXSP,2013-02-28 16:28:00,
2013-02-28 11:33:00,31.6,29.2,29.82,WNW,292,0.0,0.0,91,0.00,,,0.00,WUHU21623XXSP,2013-02-28 16:33:00,
2013-02-28 11:38:00,31.3,28.9,29.82,WNW,292,0.0,0.0,91,0.00,,,0.00,WUHU21623XXSP,2013-02-28 16:38:00,
2013-02-28 11:43:00,31.3,28.9,29.82,WNW,292,0.0,0.0,91,0.00,,,0.00,WUHU21623XXSP,2013-02-28 16:43:00,
2013-02-28 12:16:00,30.0,27.6,29.84,NW,315,0.0,0.0,91,0.00,,,0.00,WUHU21623XXSP,2013-02-28 17:16:00,
2013-02-28 12:21:00,29.7,27.4,29.84,NW,315,0.0,0.0,91,0.00,,,0.00,WUHU21623XXSP,2013-02-28 17:21:00,
2013-02-28 12:26:00,29.5,27.1,29.84,NW,315,0.0,0.0,91,0.00,,,0.00,WUHU21623XXSP,2013-02-28 17:26:00,
2013-02-28 12:29:00,29.4,27.0,29.84,North,0,0.0,0.0,91,0.00,,,0.00,WUHU21623XXSP,2013-02-28 17:29:00,
2013-02-28 12:31:00,29.4,27.0,29.84,NW,315,0.0,0.0,91,0.00,,,0.00,WUHU21623XXSP,2013-02-28 17:31:00,
2013-02-28 12:36:00,29.4,27.0,29.84,North,0,0.0,0.0,91,0.00,,,0.00,WUHU21623XXSP,2013-02-28 17:36:00,
2013-02-28 12:41:00,29.3,26.7,29.84,NNE,22,0.0,0.0,90,0.00,,,0.00,WUHU21623XXSP,2013-02-28 17:41:00,
2013-02-28 12:46:00,29.1,26.5,29.84,NNE,22,0.0,0.0,90,0.00,,,0.00,WUHU21623XXSP,2013-02-28 17:46:00,
2013-02-28 12:51:00,28.9,26.3,29.85,NNE,22,0.0,0.0,90,0.00,,,0.00,WUHU21623XXSP,2013-02-28 17:51:00,
2013-02-28 12:56:00,28.7,26.1,29.85,NNE,22,0.0,0.0,90,0.00,,,0.00,WUHU21623XXSP,2013-02-28 17:56:00,
2013-02-28 13:01:00,28.6,26.0,29.84,NNE,22,0.0,0.0,90,0.00,,,0.00,WUHU21623XXSP,2013-02-28 18:01:00,
2013-02-28 13:06:00,28.7,26.0,29.85,NNE,22,0.0,0.0,90,0.00,,,0.00,WUHU21623XXSP,2013-02-28 18:06:00,
2013-02-28 13:11:00,28.5,25.9,29.85,NNE,22,0.0,0.0,90,0.00,,,0.00,WUHU21623XXSP,2013-02-28 18:11:00,
2013-02-28 13:16:00,28.4,25.8,29.85,NNE,22,0.0,0.0,90,0.00,,,0.00,WUHU21623XXSP,2013-02-28 18:16:00,
2013-02-28 13:21:00,28.3,25.7,29.84,NNE,22,0.0,0.0,90,0.00,,,0.00,WUHU21623XXSP,2013-02-28 18:21:00,
2013-02-28 13:26:00,28.2,25.6,29.84,NNE,22,0.0,0.0,90,0.00,,,0.00,WUHU21623XXSP,2013-02-28 18:26:00,
2013-02-28 13:27:00,28.2,25.6,29.84,North,0,0.0,0.0,90,0.00,,,0.00,WUHU21623XXSP,2013-02-28 18:27:00,
2013-02-28 13:31:00,28.2,25.6,29.84,NNE,22,0.0,0.0,90,0.00,,,0.00,WUHU21623XXSP,2013-02-28 18:31:00,
2013-02-28 13:36:00,28.2,25.6,29.84,North,0,0.0,0.0,90,0.00,,,0.00,WUHU21623XXSP,2013-02-28 18:36:00,
2013-02-28 14:59:00,31.1,28.2,29.86,North,0,0.0,0.0,89,0.00,,,0.00,WUHU21623XXSP,2013-02-28 19:59:00,
2013-02-28 15:04:00,31.3,28.4,29.86,NNW,337,0.0,0.0,89,0.00,,,0.00,WUHU21623XXSP,2013-02-28 20:04:00,
2013-02-28 15:09:00,31.5,28.5,29.86,NNW,337,0.0,0.0,89,0.00,,,0.00,WUHU21623XXSP,2013-02-28 20:09:00,
2013-02-28 15:14:00,31.6,28.7,29.86,NNW,337,0.0,0.0,89,0.00,,,0.00,WUHU21623XXSP,2013-02-28 20:14:00,
2013-02-28 15:19:00,31.8,28.9,29.86,NNW,337,0.0,0.0,89,0.00,,,0.00,WUHU21623XXSP,2013-02-28 20:19:00,
2013-02-28 15:20:00,31.9,28.9,29.86,North,0,0.0,0.0,89,0.00,,,0.00,WUHU21623XXSP,2013-02-28 20:20:00,
2013-02-28 15:24:00,31.9,28.9,29.86,NNW,337,0.0,0.0,89,0.00,,,0.00,WUHU21623XXSP,2013-02-28 20:24:00,
2013-02-28 15:30:00,31.9,28.9,29.86,North,0,0.0,0.0,89,0.00,,,0.00,WUHU21623XXSP,2013-02-28 20:30:00,
2013-02-28 15:35:00,32.0,29.1,29.87,NNW,337,0.0,0.0,89,0.00,,,0.00,WUHU21623XXSP,2013-02-28 20:35:00,
2013-02-28 15:40:00,32.2,29.3,29.87,NNW,337,0.0,0.0,89,0.00,,,0.00,WUHU21623XXSP,2013-02-28 20:40:00,
2013-02-28 15:45:00,32.4,29.5,29.87,NNW,337,0.0,0.0,89,0.00,,,0.00,WUHU21623XXSP,2013-02-28 20:45:00,
2013-02-28 15:50:00,32.7,29.7,29.87,NNW,337,0.0,0.0,89,0.00,,,0.00,WUHU21623XXSP,2013-02-28 20:50:00,
2013-02-28 15:55:00,32.9,30.0,29.87,NNW,337,0.0,0.0,89,0.00,,,0.00,WUHU21623XXSP,2013-02-28 20:55:00,
2013-02-28 15:59:00,33.2,30.2,29.87,North,0,0.0,0.0,89,0.00,,,0.00,WUHU21623XXSP,2013-02-28 20:59:00,
2013-02-28 16:00:00,33.2,30.2,29.87,NNW,337,0.0,0.0,89,0.00,,,0.00,WUHU21623XXSP,2013-02-28 21:00:00,
2013-02-28 16:05:00,33.2,30.2,29.87,North,0,0.0,0.0,89,0.00,,,0.00,WUHU21623XXSP,2013-02-28 21:05:00,
2013-02-28 16:29:00,34.2,31.0,29.88,North,0,0.0,0.0,88,0.00,,,0.00,WUHU21623XXSP,2013-02-28 21:29:00,
2013-02-28 16:34:00,34.5,31.2,29.89,NNW,337,0.0,0.0,88,0.00,,,0.00,WUHU21623XXSP,2013-02-28 21:34:00,
2013-02-28 16:39:00,34.8,31.5,29.89,NE,45,0.0,0.0,88,0.00,,,0.00,WUHU21623XXSP,2013-02-28 21:39:00,
2013-02-28 16:44:00,34.9,31.7,29.90,NE,45,0.0,0.0,88,0.00,,,0.00,WUHU21623XXSP,2013-02-28 21:44:00,
2013-02-28 16:49:00,35.2,31.9,29.89,SW,225,0.0,0.0,88,0.00,,,0.00,WUHU21623XXSP,2013-02-28 21:49:00,
2013-02-28 16:54:00,35.3,32.1,29.89,ENE,67,0.0,0.0,88,0.00,,,0.00,WUHU21623XXSP,2013-02-28 21:54:00,
2013-02-28 16:59:00,35.4,32.2,29.90,ENE,67,0.0,0.0,88,0.00,,,0.00,WUHU21623XXSP,2013-02-28 21:59:00,
2013-02-28 17:04:00,35.4,32.1,29.90,WSW,247,0.0,0.0,88,0.00,,,0.00,WUHU21623XXSP,2013-02-28 22:04:00,
2013-02-28 17:10:00,35.4,32.1,29.90,WSW,247,0.0,0.0,88,0.00,,,0.00,WUHU21623XXSP,2013-02-28 22:10:00,
2013-02-28 17:15:00,35.2,32.0,29.91,NE,45,0.0,0.0,88,0.00,,,0.00,WUHU21623XXSP,2013-02-28 22:15:00,
2013-02-28 17:20:00,35.2,32.0,29.91,NE,45,0.0,0.0,88,0.00,,,0.00,WUHU21623XXSP,2013-02-28 22:20:00,
2013-02-28 17:25:00,34.9,31.6,29.91,North,0,0.0,0.0,88,0.00,,,0.00,WUHU21623XXSP,2013-02-28 22:25:00,
2013-02-28 17:30:00,34.9,31.6,29.91,North,0,0.0,0.0,88,0.00,,,0.00,WUHU21623XXSP,2013-02-28 22:30:00,
2013-02-28 17:35:00,34.9,31.6,29.91,West,270,0.0,0.0,88,0.00,,,0.00,WUHU21623XXSP,2013-02-28 22:35:00,
2013-02-28 17:40:00,34.9,31.6,29.91,ENE,67,0.0,0.0,88,0.00,,,0.00,WUHU21623XXSP,2013-02-28 22:40:00,
2013-02-28 17:45:00,34.9,31.6,29.92,ENE,67,0.0,0.0,88,0.00,,,0.00,WUHU21623XXSP,2013-02-28 22:45:00,
2013-02-28 17:50:00,34.5,31.2,29.92,ENE,67,0.0,0.0,88,0.00,,,0.00,WUHU21623XXSP,2013-02-28 22:50:00,
2013-02-28 17:55:00,34.5,31.2,29.92,NW,315,0.0,0.0,88,0.00,,,0.00,WUHU21623XXSP,2013-02-28 22:55:00,
2013-02-28 18:00:00,34.5,31.2,29.92,NW,315,0.0,0.0,88,0.00,,,0.00,WUHU21623XXSP,2013-02-28 23:00:00,
2013-02-28 18:05:00,34.3,31.1,29.92,NW,315,0.0,0.0,88,0.00,,,0.00,WUHU21623XXSP,2013-02-28 23:05:00,
2013-02-28 18:10:00,34.3,31.1,29.93,NW,315,0.0,0.0,88,0.00,,,0.00,WUHU21623XXSP,2013-02-28 23:10:00,
2013-02-28 18:15:00,34.3,31.1,29.93,NW,315,0.9,0.9,88,0.00,,,0.00,WUHU21623XXSP,2013-02-28 23:15:00,
2013-02-28 18:20:00,34.3,31.1,29.93,NW,315,0.9,0.9,88,0.00,,,0.00,WUHU21623XXSP,2013-02-28 23:20:00,
2013-02-28 18:25:00,34.3,31.1,29.94,NW,315,0.9,0.9,88,0.00,,,0.00,WUHU21623XXSP,2013-02-28 23:25:00,
2013-02-28 18:30:00,34.3,31.1,29.94,NW,315,0.9,0.9,88,0.00,,,0.00,WUHU21623XXSP,2013-02-28 23:30:00,
2013-02-28 18:31:00,34.3,31.1,29.94,North,0,0.0,0.0,88,0.00,,,0.00,WUHU21623XXSP,2013-02-28 23:31:00,
2013-02-28 18:35:00,34.3,31.1,29.94,NW,315,0.9,0.9,88,0.00,,,0.00,WUHU21623XXSP,2013-02-28 23:35:00,
2013-02-28 18:40:00,34.3,31.1,29.94,North,0,0.0,0.0,88,0.00,,,0.00,WUHU21623XXSP,2013-02-28 23:40:00,
2013-02-28 18:54:00,33.6,30.4,29.95,North,0,0.0,0.0,88,0.00,,,0.00,WUHU21623XXSP,2013-02-28 23:54:00,
2013-02-28 18:59:00,33.6,30.4,29.95,North,0,0.0,0.0,88,0.00,,,0.00,WUHU21623XXSP,2013-02-28 23:59:00,
2013-02-28 19:04:00,33.6,30.4,29.95,NW,315,0.0,0.0,88,0.00,,,0.00,WUHU21623XXSP,2013-03-01 00:04:00,
2013-02-28 19:09:00,33.6,30.4,29.95,NW,315,0.0,0.0,88,0.00,,,0.00,WUHU21623XXSP,2013-03-01 00:09:00,
2013-02-28 19:14:00,33.4,30.2,29.96,NW,315,0.0,0.0,88,0.00,,,0.00,WUHU21623XXSP,2013-03-01 00:14:00,
2013-02-28 19:19:00,33.4,30.2,29.96,NW,315,0.0,0.0,88,0.00,,,0.00,WUHU21623XXSP,2013-03-01 00:19:00,
2013-02-28 19:24:00,33.3,30.0,29.96,NW,315,0.0,0.0,88,0.00,,,0.00,WUHU21623XXSP,2013-03-01 00:24:00,
2013-02-28 19:29:00,33.1,29.9,29.96,NW,315,0.0,0.0,88,0.00,,,0.00,WUHU21623XXSP,2013-03-01 00:29:00,
2013-02-28 19:34:00,33.1,29.9,29.96,NW,315,0.0,0.0,88,0.00,,,0.00,WUHU21623XXSP,2013-03-01 00:34:00,
2013-02-28 19:39:00,33.1,29.9,29.97,NW,315,0.0,0.0,88,0.00,,,0.00,WUHU21623XXSP,2013-03-01 00:39:00,
2013-02-28 19:44:00,33.1,29.9,29.97,NNW,337,0.0,0.0,88,0.00,,,0.00,WUHU21623XXSP,2013-03-01 00:44:00,
2013-02-28 19:49:00,33.1,29.9,29.97,NNW,337,0.0,0.0,88,0.00,,,0.00,WUHU21623XXSP,2013-03-01 00:49:00,
2013-02-28 19:54:00,32.9,29.7,29.97,NNW,337,0.0,0.0,88,0.00,,,0.00,WUHU21623XXSP,2013-03-01 00:54:00,
2013-02-28 19:59:00,32.7,29.6,29.97,North,0,0.0,0.0,88,0.00,,,0.00,WUHU21623XXSP,2013-03-01 00:59:00,
2013-02-28 20:04:00,32.7,29.6,29.97,North,0,0.0,0.0,88,0.00,,,0.00,WUHU21623XXSP,2013-03-01 01:04:00,
2013-02-28 20:09:00,32.7,29.6,29.97,North,0,0.0,0.0,88,0.00,,,0.00,WUHU21623XXSP,2013-03-01 01:09:00,
2013-02-28 20:14:00,32.7,29.6,29.97,NW,315,0.0,0.0,88,0.00,,,0.00,WUHU21623XXSP,2013-03-01 01:14:00,
2013-02-28 20:19:00,32.7,29.6,29.97,NW,315,0.0,0.0,88,0.00,,,0.00,WUHU21623XXSP,2013-03-01 01:19:00,
2013-02-28 20:24:00,32.7,29.6,29.97,NW,315,0.0,0.0,88,0.00,,,0.00,WUHU21623XXSP,2013-03-01 01:24:00,
2013-02-28 20:29:00,32.7,29.6,29.97,NNE,22,0.0,0.0,88,0.00,,,0.00,WUHU21623XXSP,2013-03-01 01:29:00,
2013-02-28 20:34:00,32.4,29.2,29.97,NW,315,0.0,0.0,88,0.00,,,0.00,WUHU21623XXSP,2013-03-01 01:34:00,
2013-02-28 20:39:00,32.4,28.9,29.97,NNE,22,0.0,0.0,87,0.00,,,0.00,WUHU21623XXSP,2013-03-01 01:39:00,
2013-02-28 20:44:00,32.4,28.9,29.98,NNE,22,0.0,0.0,87,0.00,,,0.00,WUHU21623XXSP,2013-03-01 01:44:00,
2013-02-28 20:49:00,32.2,28.8,29.98,WNW,292,0.0,0.0,87,0.00,,,0.00,WUHU21623XXSP,2013-03-01 01:49:00,
2013-02-28 20:54:00,32.2,28.8,29.98,WNW,292,0.0,0.0,87,0.00,,,0.00,WUHU21623XXSP,2013-03-01 01:54:00,
2013-02-28 20:59:00,32.2,28.8,29.98,WNW,292,0.0,0.0,87,0.00,,,0.00,WUHU21623XXSP,2013-03-01 01:59:00,
2013-02-28 21:04:00,32.2,28.8,29.98,North,0,0.0,0.0,87,0.00,,,0.00,WUHU21623XXSP,2013-03-01 02:04:00,
2013-02-28 21:09:00,32.2,28.8,29.98,North,0,0.0,0.0,87,0.00,,,0.00,WUHU21623XXSP,2013-03-01 02:09:00,
2013-02-28 21:14:00,32.0,28.6,29.98,North,0,0.0,0.0,87,0.00,,,0.00,WUHU21623XXSP,2013-03-01 02:14:00,
2013-02-28 21:19:00,31.8,28.4,29.98,NNW,337,0.0,0.0,87,0.00,,,0.00,WUHU21623XXSP,2013-03-01 02:19:00,
2013-02-28 21:24:00,31.8,28.4,29.98,NNW,337,0.0,0.0,87,0.00,,,0.00,WUHU21623XXSP,2013-03-01 02:24:00,
2013-02-28 21:29:00,31.8,28.4,29.98,NW,315,0.0,0.0,87,0.00,,,0.00,WUHU21623XXSP,2013-03-01 02:29:00,
2013-02-28 21:34:00,31.8,28.4,29.98,NW,315,0.0,0.0,87,0.00,,,0.00,WUHU21623XXSP,2013-03-01 02:34:00,
2013-02-28 21:39:00,31.8,28.4,29.98,North,0,0.0,0.0,87,0.00,,,0.00,WUHU21623XXSP,2013-03-01 02:39:00,
2013-02-28 21:44:00,31.8,28.4,29.98,NNW,337,0.0,0.0,87,0.00,,,0.00,WUHU21623XXSP,2013-03-01 02:44:00,
2013-02-28 21:49:00,31.6,28.3,29.98,NNW,337,0.0,0.0,87,0.00,,,0.00,WUHU21623XXSP,2013-03-01 02:49:00,
2013-02-28 21:54:00,31.6,28.3,29.98,NW,315,0.0,0.0,87,0.00,,,0.00,WUHU21623XXSP,2013-03-01 02:54:00,
2013-02-28 21:59:00,31.6,28.3,29.97,NW,315,0.0,0.0,87,0.00,,,0.00,WUHU21623XXSP,2013-03-01 02:59:00,
2013-02-28 22:04:00,31.6,28.3,29.98,NE,45,0.0,0.0,87,0.00,,,0.00,WUHU21623XXSP,2013-03-01 03:04:00,
2013-02-28 22:09:00,31.6,28.3,29.98,ENE,67,0.0,0.0,87,0.00,,,0.00,WUHU21623XXSP,2013-03-01 03:09:00,
2013-02-28 22:14:00,31.6,28.3,29.98,NNW,337,0.0,0.0,87,0.00,,,0.00,WUHU21623XXSP,2013-03-01 03:14:00,
2013-02-28 22:19:00,31.6,28.3,29.98,NNW,337,0.0,0.0,87,0.00,,,0.00,WUHU21623XXSP,2013-03-01 03:19:00,
2013-02-28 22:24:00,31.6,28.3,29.98,NNW,337,0.0,0.0,87,0.00,,,0.00,WUHU21623XXSP,2013-03-01 03:24:00,
2013-02-28 22:29:00,31.6,28.3,29.98,NNW,337,0.0,0.0,87,0.00,,,0.00,WUHU21623XXSP,2013-03-01 03:29:00,
2013-02-28 22:34:00,31.6,28.3,29.99,NNW,337,0.0,0.0,87,0.00,,,0.00,WUHU21623XXSP,2013-03-01 03:34:00,
2013-02-28 22:39:00,31.6,28.3,29.98,ENE,67,0.0,0.0,87,0.00,,,0.00,WUHU21623XXSP,2013-03-01 03:39:00,
2013-02-28 22:44:00,31.6,28.3,29.98,ENE,67,0.0,0.0,87,0.00,,,0.00,WUHU21623XXSP,2013-03-01 03:44:00,
2013-02-28 22:49:00,31.6,28.3,29.98,NW,315,0.0,0.0,87,0.00,,,0.00,WUHU21623XXSP,2013-03-01 03:49:00,
2013-02-28 22:54:00,31.6,28.3,29.99,WNW,292,0.0,0.0,87,0.00,,,0.00,WUHU21623XXSP,2013-03-01 03:54:00,
2013-02-28 22:59:00,31.6,28.3,29.99,WNW,292,0.0,0.0,87,0.00,,,0.00,WUHU21623XXSP,2013-03-01 03:59:00,
2013-02-28 23:04:00,31.6,28.3,29.99,West,270,0.0,0.0,87,0.00,,,0.00,WUHU21623XXSP,2013-03-01 04:04:00,
2013-02-28 23:09:00,31.6,28.3,29.99,West,270,0.0,0.0,87,0.00,,,0.00,WUHU21623XXSP,2013-03-01 04:09:00,
2013-02-28 23:14:00,31.6,28.3,29.99,WNW,292,0.0,0.0,87,0.00,,,0.00,WUHU21623XXSP,2013-03-01 04:14:00,
2013-02-28 23:19:00,31.5,28.1,29.99,WNW,292,0.0,0.0,87,0.00,,,0.00,WUHU21623XXSP,2013-03-01 04:19:00,
2013-02-28 23:24:00,31.5,28.1,29.99,WNW,292,0.0,0.0,87,0.00,,,0.00,WUHU21623XXSP,2013-03-01 04:24:00,
2013-02-28 23:29:00,31.5,28.1,29.98,WNW,292,0.0,0.0,87,0.00,,,0.00,WUHU21623XXSP,2013-03-01 04:29:00,
2013-02-28 23:34:00,31.5,28.1,29.99,WNW,292,0.0,0.0,87,0.00,,,0.00,WUHU21623XXSP,2013-03-01 04:34:00,
2013-02-28 23:39:00,31.5,28.1,29.99,WNW,292,0.0,0.0,87,0.00,,,0.00,WUHU21623XXSP,2013-03-01 04:39:00,
2013-02-28 23:44:00,31.5,28.1,29.99,WNW,292,0.0,0.0,87,0.00,,,0.00,WUHU21623XXSP,2013-03-01 04:44:00,
2013-02-28 23:49:00,31.3,27.9,29.99,WNW,292,0.0,0.0,87,0.00,,,0.00,WUHU21623XXSP,2013-03-01 04:49:00,
2013-02-28 23:54:00,31.3,27.9,29.98,WNW,292,0.0,0.0,87,0.00,,,0.00,WUHU21623XXSP,2013-03-01 04:54:00,
2013-02-28 23:59:00,31.3,27.9,29.99,NW,315,0.0,0.0,87,0.00,,,0.00,WUHU21623XXSP,2013-03-01 04:59:00,